www.pogodaiklimat.ru

Погода и климат >> Архив погоды >> Албания >> Shkodra


ПОГОДА в Shkodra

  • Прогноз погоды в Shkodra
  • Монитор погоды в Shkodra
  • Климат города

АРХИВ ПОГОДЫ в Shkodra

Время (UTC), дата Ветер
(напр.,м/с)
 
Видим.   Явления Облачность Т
(С)
Тd
(С)
f
(%)
Тe
(С)
Тes
(С)
Комфортность P
(гПа)
Po
(гПа)
Тmin
(С)
Tmax
(С)
R
(мм)
R24
(мм)
S
(см)
00 15.02 В 6 10 км ясно +5.8 +2.9 82 +1 +1 1013.8 1008.5
03 15.02 В 10 10 км 4/0
[Ac trans]
+5.6 -0.5 65 -0 -0 1014.3 1009.0
06 15.02 В 12 10 км 4/0
[Ac trans]
+5.4 -2.6 56 -1 -1 1014.3 1009.0 +4.2
09 15.02 СВ 14 15 км 4/0
[Ac trans]
+7.0 -4.7 43 +1 +1 1016.4 1011.1
12 15.02 СВ 16 12 км 5/0
[Ac trans]
+9.6 -5.1 35 +5 +5 1016.9 1011.7
15 15.02 В 14 20 км 3/0
[Ac trans]
+10.2 -4.5 35 +6 +6 1017.1 1011.9
18 15.02 В 16 10 км ясно +7.2 -5.4 40 +1 +1 1018.4 1013.1 +10.4
21 15.02 В 16 10 км ясно +6.4 -4.7 45 -0 -0 1020.2 1014.9
00 16.02 В 16 10 км ясно +5.6 -4.0 50 -1 -1 1021.0 1015.7
03 16.02 В 6 10 км ясно +2.4 +1.3 92 -4 -4 1022.6 1017.2
06 16.02 В 2 10 км ясно +0.4 -0.7 92 -3 -3 1023.5 1018.0 0.0
09 16.02 СЗ 4 20 км ясно +5.6 -1.5 60 +2 +6 1024.6 1019.2
12 16.02 СЗ 6 20 км ясно +9.4 -3.5 40 +6 +9 1023.8 1018.5
15 16.02 СЗ 6 20 км ясно +11.6 -3.3 35 +9 +10 1023.2 1018.0
18 16.02 СЗ 4 10 км ясно +7.8 -2.3 49 +5 +5 1023.6 1018.3 +12.0
21 16.02 В 4 10 км ясно +5.2 +3.2 87 +1 +1 1024.5 1019.1
00 17.02 СВ 4 10 км ясно +4.0 +2.6 91 -1 -1 1025.1 1019.7
03 17.02 СВ 4 10 км ясно +3.8 +2.4 91 -1 -1 1025.3 1019.9
06 17.02 СВ 4 10 км 1/0
[Ci sp]
+3.4 +1.8 89 -1 -1 1025.7 1020.3 +2.0
09 17.02 СЗ 4 20 км 5/0
[Ac trans]
+8.2 +5.4 82 +5 +8 1025.2 1019.9
12 17.02 З 4 20 км ясно +12.8 -1.5 37 +11 +16 1023.3 1018.1
15 17.02 З 4 20 км 1/0
[Ci sp]
+16.0 -5.7 22 +15 +16 1022.1 1016.9
18 17.02 ЮВ 2 10 км ясно +11.0 +4.5 64 +10 +10 1020.8 1015.5 +16.2
21 17.02 В 6 10 км ясно +9.4 +4.2 70 +6 +6 1021.4 1016.1
00 18.02 В 4 10 км ясно +8.0 +4.3 77 +5 +5 1021.4 1016.1
03 18.02 В 4 10 км ясно +6.8 +4.0 82 +3 +3 1020.8 1015.5
06 18.02 штиль 0 10 км ясно +5.0 +3.8 92 +4 +4 1020.3 1014.9 +5.0
09 18.02 штиль 0 15 км 10/10 1500 м
[Sc]
+8.8 +5.5 80 +8 +8 1019.5 1014.2
12 18.02 З 6 15 км 10/0
[Ac und]
+12.0 +5.4 64 +9 +10 1019.3 1014.0
15 18.02 штиль 0 15 км 10/0
[Ac und]
+11.2 +4.8 65 +11 +11 1018.9 1013.6
18 18.02 С 6 10 км 8/0
[Ac trans]
+10.0 +8.9 93 +6 +6 1018.9 1013.6 +12.0
21 18.02 В 6 10 км 8/0
[Ac trans]
+8.8 +7.8 93 +5 +5 1017.9 1012.7
00 19.02 В 6 10 км 5/0
[Ac trans]
+8.2 +7.1 93 +4 +4 1018.0 1012.7
03 19.02 В 6 10 км 5/0
[Ac trans]
+8.2 +4.5 77 +4 +4 1017.2 1011.9
06 19.02 З 6 10 км 5/0
[Ac trans]
+8.0 +5.4 84 +4 +4 1016.4 1011.1 +6.8
09 19.02 З 6 8000 м слабый дождь 10/10 480 м
[Sc]
+7.4 +5.5 88 +3 +3 1017.4 1012.1
12 19.02 З 6 3000 м дождь 10/10 600 м
[Sc]
+7.2 +5.6 90 +3 +3 1016.8 1011.5 5
15 19.02 ЮВ 4 3000 м дождь 10/10 600 м
[Sc]
+6.6 +4.2 85 +3 +3 1016.2 1010.8
18 19.02 В 4 3000 м дождь 10/10 600 м
[Sc]
+5.4 +2.6 82 +1 +1 1015.4 1010.0 +7.6 11
21 19.02 ЮВ 4 3000 м дождь 10/10 600 м
[Sc]
+5.6 +2.8 82 +2 +2 1014.4 1009.0
00 20.02 ЮВ 4 3000 м дождь 10/10 600 м
[Sc]
+5.2 +2.4 82 +1 +1 1014.0 1008.7 5
03 20.02 В 4 3000 м дождь 10/10 600 м
[Sc]
+5.4 +2.6 82 +1 +1 1012.1 1006.8
06 20.02 штиль 0 10 км в посл. час дождь 10/10 900 м
[Sc]
+6.0 +2.8 80 +5 +5 1010.1 1004.8 +5.0 13
09 20.02 СЗ 4 8000 м слабая морось {дождь} 10/10 600 м
[Sc]
+6.8 +3.6 80 +3 +3 1009.5 1004.2
12 20.02 З 4 20 км дождь {морось} 10/10 400 м
[Sc]
+7.0 +4.5 84 +3 +3 1009.0 1003.7 5
15 20.02 З 4 2000 м дождь 10/10 400 м
[Sc]
+7.2 +4.7 84 +4 +4 1008.8 1003.5
18 20.02 ЮВ 6 2000 м дождь 10/10 400 м
[Sc]
+6.8 +4.1 83 +2 +2 1008.0 1002.7 +7.2 13
21 20.02 СВ 4 5000 м слабая морось {дождь} 10/10 600 м
[Sc]
+6.4 +3.7 83 +3 +3 1007.4 1002.2
00 21.02 СВ 4 5000 м слабая морось {дождь} 10/10 600 м
[Sc]
+6.0 +3.3 83 +2 +2 1007.0 1001.8 1
03 21.02 СВ 4 5000 м слабая морось 10/10 600 м
[Sc]
+5.6 +2.9 83 +2 +2 1006.6 1001.4
06 21.02 СЗ 4 5000 м морось 10/10 600 м
[Sc]
+5.4 +2.7 83 +1 +1 1006.4 1001.2 +5.2 7
09 21.02 СЗ 4 10 км в посл. час дождь {морось} 10/10 600 м
[Sc]
+7.0 +4.3 83 +3 +3 1006.6 1001.4
12 21.02 СЗ 4 10 км слабый дождь {морось} 10/10 1000 м
[Sc]
+8.6 +5.4 80 +6 +6 1006.9 1001.7 2
15 21.02 штиль 0 4000 м дождь {морось} 10/10 700 м
[Sc]
+8.2 +5.6 84 +7 +7 1006.1 1000.9
18 21.02 С 2 6000 м морось {дождь} 10/10 1200 м
[Sc]
+8.0 +5.6 85 +6 +6 1005.2 999.9 +8.8 4
21 21.02 штиль 0 5000 м слабая морось {дождь} 10/10 1200 м
[Sc]
+7.6 +5.1 84 +7 +7 1005.6 1000.3

 

Местоположение метеостанции Shkodra (Албания): широта 42.10 долгота 19.53 высота над уровнем моря 43 м.

В архиве по умолчанию представлена погода в Shkodra за последнюю неделю. Архивные данные за месяц целиком и за предыдущие месяцы, начиная с января 2011 года, Вы можете получить, выбрав интересующий диапазон дат из раскрывающегося списка и нажав кнопку "Ввод!".

Внимание! Время в таблицах - всемирное. Для получения местного времени необходимо прибавить поправку, которая в Shkodra равна 1 ч.

Смотрите также архив погоды в соседних городах и на ближайших метеорологических станциях:

Погода в Bar (Черногория) (35 км)
Погода в Podgorica (Черногория) (38 км)
Погода в Podgorica-Grad (Черногория) (42 км)
Погода в Tivat (Черногория) (74 км)
Погода в Peshkopia (Албания) (88 км)
Погода в Tirana (Албания) (88 км)
Погода в Niksic (Черногория) (88 км)
Погода в Durres (Албания) (89 км)
Погода в Tirana Lapraka (Албания) (94 км)
Погода в Elbasan (Албания) (114 км)

Пояснения к столбцам:

Ветер - указаны скорость ветра в м/с - средняя за 10 мин, порывы в срок и между сроками (в фигурных скобках) и направление, откуда дует ветер: С - северный, СВ - северо-восточный, В - восточный, ЮВ - юго-восточный, Ю - южный, ЮЗ - юго-западный, З - западный, СЗ - северо-западный.
Видимость - горизонтальная дальность видимости в метрах или километрах. При видимости от 1 до 10 км при отсутствии осадков обычно наблюдается дымка, при ухудшении видимости до 1 км и менее - туман. В сухую погоду видимость может ухудшаться дымом, пылью или мглою.
Явления - указаны атмосферные явления, наблюдавшиеся в срок или в последний час перед сроком; фигурными скобками обозначены явления, наблюдавшиеся между сроками (за 1-3 часа до срока); квадратными скобками обозначены град или гололедные отложения с указанием их диаметра в мм.
Облачность - указаны через наклонную черту общая и нижняя облачность в баллах и высота нижней границы облаков в метрах; квадратными скобками обозначены формы облаков: Ci - перистые, Cs - перисто-слоистые, Cc - перисто-кучевые, Ac - высококучевые, As - высокослоистые, Sc - слоисто-кучевые, Ns - слоисто-дождевые, Cu - кучевые, Cb - кучево-дождевые. Подробнее классификацию облаков см. в Атласе облаков (PDF).
T - Температура воздуха - температура, измеренная на высоте 2 м над землей.
Td - Температура точки росы - температура, при понижении до которой содержащийся в воздухе водяной пар достигнет насыщения.
f - Относительная влажность воздуха - влажноcть воздуха, измеренная на высоте 2 м над землей.
Te - Эффективная температура - температура, которую ощущает одетый по сезону человек в тени. Характеристика душности погоды. При расчете учитывается влияние влажности воздуха и скорости ветра на теплоощущения человека.
Tes - Эффективная температура на солнце - температура, которую ощущает человек, с поправкой на солнечный нагрев. Характеристика знойности погоды. Зависит от высоты солнца над горизонтом, облачности и скорости ветра. Ночью, в пасмурную погоду, а также при ветре 12 м/с и более поправка равна нулю.
P - Атмосферное давление - приведенное к уровню моря атмосферное давление.
Po - Атмосферное давление - измеренное на уровне метеостанции атмосферное давление.
Tmin - Минимальная температура - минимум температуры воздуха на высоте 2 м над землей.
Tmax - Максимальная температура - максимум температуры воздуха на высоте 2 м над землей.
R - Количество осадков - Количество выпавших осадков за период времени, мм. При наведении курсора мыши на число - период времени, за который выпало указанное количество осадков.
R24 - Количество осадков - Количество выпавших осадков за 24 часа, мм.
S - Снежный покров - Высота снежного покрова, см. При наведении курсора мыши на число - состояние снежного покрова и степень покрытия местности в баллах.